Weather History for Marshfield, MA

Change the Weather History Date:

Thursday, March 7, 2013

  Actual Average (KPYM) Record (KPYM)
Temperature  
Mean Temperature 35 °F -  
Max Temperature 37 °F 44 °F 65 °F (1951)
Min Temperature 33 °F 23 °F 3 °F (2003)
Degree Days  
Heating Degree Days 30    
Moisture  
Dew Point 34 °F    
Average Humidity 91    
Maximum Humidity 100    
Minimum Humidity 87    
Precipitation  
Precipitation 0.65 in - - ()
Sea Level Pressure  
Sea Level Pressure 29.98 in    
Wind  
Wind Speed 22 mph (North)    
Max Wind Speed 28 mph    
Max Gust Speed 44 mph    
Visibility 2 miles    
Events Rain , Snow    
Averages and records for this station are not official NWS values.
T = Trace of Precipitation, MM = Missing Value Source: NWS Daily Summary

Daily Weather History Graph

Daily Weather History Graph

Search for Another Location

Airport:

Trip Planner

Search our weather history database for the weather conditions in past years. The results will help you decide how hot, cold, wet, or windy it might be!

Date:

Astronomy

Mar. 07, 2013 Rise Set
Actual Time 6:07 AM EST 5:40 PM EST
Civil Twilight 5:39 AM EST 6:08 PM EST
Nautical Twilight 5:07 AM EST 6:40 PM EST
Astronomical Twilight 4:34 AM EST 7:13 PM EST
Moon 3:08 AM EST (3/7) 1:20 PM EST (3/7)
Length of Visible Light 12h 28m
Length of Day
11h 32m
Waning Crescent, 20% of the Moon is Illuminated
Mar 7
Waning Crescent
Mar 11
New
Mar 19
First Quarter
Mar 27
Full
Apr 3
Last Quarter

Hourly Weather History & Observations

Time (EST) Temp. Windchill Dew Point Humidity Pressure Visibility Wind Dir Wind Speed Gust Speed Precip Events Conditions
12:15 AM 37.4 °F 26.1 °F 33.8 °F 87% 30.02 in 4.0 mi NNE 24.2 mph 31.1 mph N/A   Overcast
12:35 AM 37.4 °F 26.4 °F 33.8 °F 87% 30.01 in 5.0 mi NNE 23.0 mph 33.4 mph N/A   Overcast
12:55 AM 37.4 °F 26.6 °F 33.8 °F 87% 30.00 in 5.0 mi NNE 21.9 mph 35.7 mph N/A   Overcast
1:15 AM 37.4 °F 27.8 °F 33.8 °F 87% 30.00 in 8.0 mi NNE 17.3 mph 35.7 mph N/A   Overcast
1:35 AM 37.4 °F 27.2 °F 33.8 °F 87% 29.99 in 9.0 mi NNE 19.6 mph 36.8 mph N/A   Overcast
1:55 AM 37.4 °F 27.2 °F 33.8 °F 87% 29.98 in 5.0 mi NNE 19.6 mph 35.7 mph N/A   Overcast
2:15 AM 37.4 °F 26.6 °F 33.8 °F 87% 29.98 in 5.0 mi NNE 21.9 mph 36.8 mph N/A   Overcast
2:35 AM 37.4 °F 26.4 °F 33.8 °F 87% 29.98 in 3.0 mi North 23.0 mph 38.0 mph 0.01 in   Overcast
2:55 AM 37.4 °F 25.6 °F 33.8 °F 87% 29.97 in 3.0 mi NNE 26.5 mph 38.0 mph 0.01 in   Overcast
3:15 AM 37.4 °F 27.5 °F 33.8 °F 87% 29.97 in 2.0 mi North 18.4 mph 35.7 mph N/A   Overcast
3:35 AM 37.4 °F 26.6 °F 33.8 °F 87% 29.97 in 4.0 mi North 21.9 mph 40.3 mph 0.01 in   Overcast
3:55 AM 37.4 °F 25.9 °F 33.8 °F 87% 29.97 in 9.0 mi North 25.3 mph 42.6 mph 0.01 in   Overcast
4:15 AM 37.4 °F 26.1 °F 33.8 °F 87% 29.96 in 7.0 mi North 24.2 mph 34.5 mph N/A   Overcast
4:35 AM 37.4 °F 25.9 °F 33.8 °F 87% 29.97 in 5.0 mi North 25.3 mph 35.7 mph N/A   Overcast
4:55 AM 37.4 °F 26.4 °F 33.8 °F 87% 29.97 in 5.0 mi North 23.0 mph 34.5 mph N/A   Overcast
5:15 AM 37.4 °F 26.9 °F 33.8 °F 87% 29.98 in 1.8 mi North 20.7 mph 38.0 mph 0.01 in   Overcast
5:35 AM 37.4 °F 28.2 °F 33.8 °F 87% 29.98 in 1.8 mi NNE 16.1 mph 35.7 mph 0.01 in   Overcast
5:55 AM 37.4 °F 26.9 °F 33.8 °F 87% 29.98 in 2.0 mi North 20.7 mph 33.4 mph 0.04 in   Overcast
6:15 AM 35.6 °F 24.0 °F 33.8 °F 93% 29.98 in 1.8 mi North 23.0 mph 36.8 mph 0.03 in   Overcast
6:35 AM 35.6 °F 24.8 °F 33.8 °F 93% 29.98 in 1.8 mi North 19.6 mph 32.2 mph 0.05 in   Overcast
6:55 AM 37.4 °F 27.8 °F 35.6 °F 93% 29.98 in 1.8 mi North 17.3 mph 33.4 mph 0.08 in   Overcast
7:15 AM 37.4 °F 26.6 °F 35.6 °F 93% 29.98 in 2.0 mi North 21.9 mph 33.4 mph 0.01 in   Overcast
7:35 AM 37.4 °F 26.6 °F 35.6 °F 93% 29.98 in 2.0 mi North 21.9 mph 34.5 mph 0.03 in   Overcast
7:55 AM 37.4 °F 25.9 °F 35.6 °F 93% 29.99 in 1.8 mi NNE 25.3 mph 33.4 mph 0.03 in   Overcast
8:15 AM 37.4 °F 27.2 °F 35.6 °F 93% 29.99 in 2.0 mi North 19.6 mph 29.9 mph 0.01 in   Overcast
8:35 AM 37.4 °F 27.5 °F 35.6 °F 93% 29.99 in 2.0 mi North 18.4 mph 33.4 mph 0.02 in   Overcast
8:55 AM 37.4 °F 25.9 °F 35.6 °F 93% 29.98 in 2.5 mi NNE 25.3 mph 39.1 mph 0.03 in   Overcast
9:15 AM 37.4 °F 25.6 °F 35.6 °F 93% 29.98 in 3.0 mi NNE 26.5 mph 40.3 mph 0.01 in   Overcast
9:35 AM 37.4 °F 26.6 °F 35.6 °F 93% 29.98 in 3.0 mi North 21.9 mph 42.6 mph 0.01 in   Overcast
9:55 AM 37.4 °F 26.6 °F 33.8 °F 87% 29.98 in 3.0 mi NNE 21.9 mph 36.8 mph 0.02 in   Overcast
10:15 AM 37.4 °F 26.6 °F 33.8 °F 87% 29.98 in 3.0 mi NNE 21.9 mph 39.1 mph 0.02 in   Overcast
10:35 AM 37.4 °F 26.6 °F 35.6 °F 93% 29.98 in 2.5 mi North 21.9 mph 35.7 mph 0.03 in   Overcast
10:55 AM 37.4 °F 26.1 °F 35.6 °F 93% 29.98 in 2.5 mi North 24.2 mph 38.0 mph 0.04 in   Overcast
11:15 AM 37.4 °F 26.1 °F 35.6 °F 93% 29.98 in 3.0 mi North 24.2 mph 32.2 mph 0.01 in Rain Light Rain
11:35 AM 37.4 °F 25.6 °F 35.6 °F 93% 29.98 in 3.0 mi North 26.5 mph 36.8 mph 0.02 in   Scattered Clouds
11:55 AM 37.4 °F 25.6 °F 35.6 °F 93% 29.98 in 3.0 mi North 26.5 mph 40.3 mph 0.03 in   Partly Cloudy
12:15 PM 37.4 °F 27.2 °F 35.6 °F 93% 29.98 in 3.0 mi North 19.6 mph 35.7 mph 0.01 in   Scattered Clouds
12:35 PM 37.4 °F 26.9 °F 33.8 °F 87% 29.98 in 2.0 mi North 20.7 mph 34.5 mph 0.02 in   Mostly Cloudy
12:55 PM 37.4 °F 26.1 °F 33.8 °F 87% 29.98 in 2.0 mi North 24.2 mph 34.5 mph 0.04 in   Mostly Cloudy
1:15 PM 35.6 °F 24.2 °F 33.8 °F 93% 29.97 in 1.5 mi North 21.9 mph 32.2 mph 0.02 in   Mostly Cloudy
1:35 PM 35.6 °F 23.7 °F 33.8 °F 93% 29.98 in 2.0 mi North 24.2 mph 38.0 mph 0.04 in   Overcast
1:55 PM 35.6 °F 24.5 °F 33.8 °F 93% 29.98 in 1.2 mi North 20.7 mph 35.7 mph 0.05 in   Overcast
2:15 PM 35.6 °F 24.2 °F 33.8 °F 93% 29.98 in 1.2 mi North 21.9 mph 38.0 mph 0.01 in Snow Light Snow
2:35 PM 35.6 °F 23.4 °F 33.8 °F 93% 29.98 in 1.0 mi North 25.3 mph 33.4 mph 0.02 in Snow Light Snow
2:55 PM 35.6 °F 24.8 °F 33.8 °F 93% 29.98 in 1.0 mi North 19.6 mph 38.0 mph 0.03 in Snow Light Snow
3:15 PM 33.8 °F 22.2 °F 33.8 °F 100% 29.98 in 0.5 mi North 20.7 mph 35.7 mph 0.01 in Snow Light Snow
3:35 PM 33.8 °F 22.2 °F 33.8 °F 100% 29.98 in 0.5 mi North 20.7 mph 43.7 mph 0.02 in   Overcast
3:55 PM 33.8 °F 23.2 °F 33.8 °F 100% 29.98 in 0.5 mi North 17.3 mph 33.4 mph 0.03 in Snow Light Snow
4:15 PM 33.8 °F 21.0 °F 33.8 °F 100% 29.98 in 0.8 mi North 25.3 mph 40.3 mph 0.01 in   Overcast
4:35 PM 35.6 °F 24.5 °F 33.8 °F 93% 29.98 in 1.2 mi North 20.7 mph 33.4 mph 0.02 in   Overcast
4:55 PM 35.6 °F 24.8 °F 33.8 °F 93% 29.99 in 1.5 mi North 19.6 mph 33.4 mph 0.03 in Snow Light Snow
5:15 PM 35.6 °F 26.2 °F 33.8 °F 93% 29.99 in 1.8 mi North 15.0 mph 40.3 mph 0.01 in Snow Light Snow
5:35 PM 35.6 °F 24.8 °F 33.8 °F 93% 29.99 in 1.5 mi North 19.6 mph 32.2 mph 0.02 in   Overcast
5:55 PM 35.6 °F 24.2 °F 33.8 °F 93% 29.99 in 2.5 mi North 21.9 mph 34.5 mph 0.03 in   Overcast
6:15 PM 35.6 °F 23.0 °F 33.8 °F 93% 29.99 in 1.8 mi North 27.6 mph 41.4 mph 0.01 in   Overcast
6:35 PM 35.6 °F 24.5 °F 33.8 °F 93% 29.99 in 1.5 mi North 20.7 mph 36.8 mph 0.03 in Snow Light Snow
6:55 PM 35.6 °F 25.9 °F 33.8 °F 93% 29.99 in 1.0 mi North 16.1 mph 35.7 mph 0.05 in Snow Light Snow
8:35 PM 35.6 °F 24.8 °F 33.8 °F 93% 29.98 in 1.2 mi North 19.6 mph 35.7 mph 0.02 in   Overcast
8:55 PM 35.6 °F 26.2 °F 33.8 °F 93% 29.98 in 1.8 mi North 15.0 mph 32.2 mph 0.03 in   Overcast
9:15 PM 35.6 °F 25.2 °F 33.8 °F 93% 29.98 in 1.5 mi North 18.4 mph 31.1 mph 0.01 in   Overcast
9:35 PM 35.6 °F 25.2 °F 33.8 °F 93% 29.97 in 1.8 mi North 18.4 mph 36.8 mph 0.02 in   Overcast
9:55 PM 35.6 °F 25.5 °F 33.8 °F 93% 29.97 in 2.0 mi North 17.3 mph 35.7 mph 0.02 in   Overcast
10:15 PM 35.6 °F 24.5 °F 33.8 °F 93% 29.97 in 1.5 mi North 20.7 mph 34.5 mph 0.01 in   Overcast
10:35 PM 35.6 °F 24.5 °F 33.8 °F 93% 29.96 in 1.0 mi North 20.7 mph 35.7 mph 0.03 in Snow Light Snow
10:55 PM 35.6 °F 25.5 °F 33.8 °F 93% 29.96 in 1.8 mi North 17.3 mph 36.8 mph 0.03 in Snow Light Snow
11:15 PM 35.6 °F 23.4 °F 33.8 °F 93% 29.97 in 0.8 mi North 25.3 mph 33.4 mph N/A Snow Light Snow
11:35 PM 35.6 °F 25.5 °F 33.8 °F 93% 29.96 in 1.2 mi North 17.3 mph 32.2 mph 0.01 in Snow Light Snow
11:55 PM 33.8 °F 22.5 °F 32.0 °F 93% 29.95 in 0.5 mi North 19.6 mph 29.9 mph 0.02 in   Overcast